Weather History for Cranwell, United Kingdom

Change the Weather History Date:

Saturday, December 21, 2013

  Actual Average Record
Temperature  
Mean Temperature 49 °F -  
Max Temperature 54 °F - - ()
Min Temperature 44 °F - - ()
Degree Days  
Heating Degree Days 16    
Moisture  
Dew Point 45 °F    
Average Humidity 79    
Maximum Humidity 93    
Minimum Humidity 60    
Precipitation  
Precipitation 0.00 in - - ()
Sea Level Pressure  
Sea Level Pressure 29.72 in    
Wind  
Wind Speed 23 mph ()    
Max Wind Speed 37 mph    
Max Gust Speed 51 mph    
Visibility 9.4 miles    
Events      
T = Trace of Precipitation, MM = Missing Value Source: Averaged Metar Reports

Daily Weather History Graph

Daily Weather History Graph

Search for Another Location

Airport:

Trip Planner

Search our weather history database for the weather conditions in past years. The results will help you decide how hot, cold, wet, or windy it might be!

Date:

Astronomy

Dec. 21, 2013 Rise Set
Actual Time 8:13 AM GMT 3:46 PM GMT
Civil Twilight 7:31 AM GMT 4:29 PM GMT
Nautical Twilight 6:46 AM GMT 5:14 PM GMT
Astronomical Twilight 6:03 AM GMT 5:56 PM GMT
Moon 8:20 PM GMT (12/21) 10:03 AM GMT (12/21)
Length of Visible Light 8h 58m
Length of Day
7h 33m
Waning Gibbous, 86% of the Moon is Illuminated
Dec 21
Waning Gibbous
Dec 25
Last Quarter
Jan 1
New
Jan 8
First Quarter
Jan 16
Full

Hourly Weather History & Observations

Time (GMT) Temp. Windchill Dew Point Humidity Pressure Visibility Wind Dir Wind Speed Gust Speed Precip Events Conditions
12:00 AM 50 °F - 45 °F 77% 29.86 in 11 mi SSW 31.1 mph - -   Partly Cloudy
12:50 AM 50.0 °F - 46.4 °F 87% 29.83 in 6.2 mi SSW 32.2 mph 43.7 mph N/A   Scattered Clouds
1:00 AM 50 °F - 46 °F 81% 29.84 in 22 mi SSW 32.2 mph - -   Mostly Cloudy
1:50 AM 51.8 °F - 46.4 °F 82% 29.83 in 6.2 mi SSW 29.9 mph - N/A   Mostly Cloudy
2:00 AM 51 °F - 46 °F 79% 29.84 in 40 mi SSW 29.9 mph - -   Mostly Cloudy
2:50 AM 51.8 °F - 46.4 °F 82% 29.83 in 6.2 mi SSW 29.9 mph - N/A   Scattered Clouds
3:00 AM 51 °F - 46 °F 78% 29.84 in 28 mi SSW 29.9 mph - -   Scattered Clouds
3:50 AM 50.0 °F - 46.4 °F 87% 29.83 in 6.2 mi SSW 24.2 mph - N/A   Partly Cloudy
4:00 AM 50 °F - 46 °F 81% 29.85 in 25 mi SSW 24.2 mph - -   Scattered Clouds
4:50 AM 50.0 °F - 46.4 °F 87% 29.83 in 6.2 mi SSW 23.0 mph - N/A   Unknown
5:00 AM 50 °F - 46 °F 81% 29.85 in 25 mi SSW 23.0 mph - -  
5:50 AM 48.2 °F - 44.6 °F 87% 29.83 in 6.2 mi SW 19.6 mph - N/A   Unknown
6:00 AM 49 °F - 45 °F 81% 29.84 in 19 mi SW 19.6 mph - -  
6:50 AM 48.2 °F - 44.6 °F 87% 29.83 in 6.2 mi SSW 20.7 mph - N/A   Unknown
7:00 AM 48 °F - 45 °F 84% 29.84 in 17 mi SSW 20.7 mph - -  
7:50 AM 48.2 °F - 44.6 °F 87% 29.80 in 6.2 mi South 13.8 mph - N/A   Mostly Cloudy
8:00 AM 48 °F - 45 °F 87% 29.83 in 19 mi South 13.8 mph - -   Mostly Cloudy
8:50 AM 48.2 °F - 46.4 °F 93% 29.80 in 6.2 mi South 18.4 mph - N/A   Partly Cloudy
9:00 AM 48 °F - 46 °F 90% 29.81 in 25 mi South 18.4 mph - -   Scattered Clouds
9:50 AM 51.8 °F - 48.2 °F 88% 29.80 in 6.2 mi SSW 17.3 mph - N/A   Mostly Cloudy
10:00 AM 51 °F - 48 °F 84% 29.81 in 25 mi SSW 17.3 mph - -   Mostly Cloudy
10:50 AM 53.6 °F - 46.4 °F 77% 29.77 in 6.2 mi SSW 25.3 mph - N/A   Mostly Cloudy
11:00 AM 53 °F - 46 °F 71% 29.78 in 22 mi SSW 25.3 mph - -   Mostly Cloudy
11:50 AM 51.8 °F - 46.4 °F 82% 29.74 in 6.2 mi SSW 23.0 mph - N/A   Unknown
12:00 PM 52 °F - 46 °F 71% 29.75 in 19 mi SSW 23.0 mph - -  
12:50 PM 53.6 °F - 46.4 °F 77% 29.71 in 6.2 mi SSW 24.2 mph - N/A   Partly Cloudy
1:00 PM 54 °F - 46 °F 67% 29.73 in 19 mi SSW 24.2 mph - -   Scattered Clouds
1:50 PM 53.6 °F - 44.6 °F 72% 29.68 in 6.2 mi SSW 25.3 mph - N/A   Unknown
2:00 PM 53 °F - 45 °F 67% 29.70 in 19 mi SSW 25.3 mph - -  
2:50 PM 51.8 °F - 44.6 °F 76% 29.65 in 6.2 mi SSW 16.1 mph - N/A   Scattered Clouds
3:00 PM 51 °F - 45 °F 73% 29.68 in 19 mi SSW 16.1 mph - -   Partly Cloudy
3:50 PM 51.8 °F - 48.2 °F 88% 29.62 in 6.2 mi South 15.0 mph - N/A   Scattered Clouds
4:00 PM 51 °F - 47 °F 83% 29.62 in 28 mi South 15.0 mph - -   Scattered Clouds
4:50 PM 51.8 °F - 48.2 °F 88% 29.56 in 6.2 mi South 24.2 mph - N/A   Mostly Cloudy
5:00 PM 52 °F - 48 °F 82% 29.57 in 25 mi South 24.2 mph - -   Partly Cloudy
5:50 PM 51.8 °F - 46.4 °F 82% 29.53 in 6.2 mi SSW 27.6 mph - N/A   Scattered Clouds
6:00 PM 51 °F - 46 °F 77% 29.54 in 28 mi SSW 27.6 mph - -   Scattered Clouds
6:50 PM 51.8 °F - 42.8 °F 71% 29.50 in 6.2 mi SSW 31.1 mph 43.7 mph N/A   Scattered Clouds
7:00 PM 52 °F - 43 °F 61% 29.52 in 19 mi SSW 31.1 mph - -   Scattered Clouds
7:50 PM 48.2 °F - 39.2 °F 71% 29.56 in 6.2 mi WSW 36.8 mph 50.6 mph N/A   Scattered Clouds
8:00 PM 49 °F - 39 °F 60% 29.57 in 31 mi WSW 36.8 mph - -   Partly Cloudy
8:50 PM 46.4 °F 37.5 °F 39.2 °F 76% 29.59 in 6.2 mi WSW 27.6 mph - N/A   Partly Cloudy
9:00 PM 47 °F - 39 °F 65% 29.61 in 37 mi WSW 27.6 mph - -   Scattered Clouds
9:50 PM 44.6 °F 35.5 °F 39.2 °F 81% 29.62 in 6.2 mi SW 25.3 mph - N/A   Partly Cloudy
10:00 PM 45 °F - 38 °F 70% 29.64 in 31 mi SW 25.3 mph - -   Scattered Clouds
10:50 PM 44.6 °F 35.7 °F 39.2 °F 81% 29.65 in 6.2 mi SW 24.2 mph - N/A   Scattered Clouds
11:00 PM 45 °F - 38 °F 70% 29.66 in 28 mi SW 24.2 mph - -   Partly Cloudy
11:50 PM 44.6 °F 35.5 °F 35.6 °F 71% 29.68 in 6.2 mi SW 25.3 mph - N/A   Scattered Clouds